C/2016 E1 ( PanSTARRS )

Japanese version
Home page
Updated on May 20, 2019

---------------------------------------------------------------------

* Profile

Discovery Date March 3, 2016
Magnitude 21.1 mag
Discoverer Pan-STARRS 1 telescope (Haleakala)

* Pictures

* Orbital Elements

Epoch 2017 June 16.0 TT = JDT 2457920.5
T 2017 June 1.42743 TT                                  MPCW
q   8.1767903            (2000.0)            P               Q
z  -0.0003842      Peri.   47.30948     -0.79986493     +0.08023508
 +/-0.0000011      Node   233.03595     -0.44393550     +0.58783556
e   1.0031415      Incl.  131.89160     +0.40390266     +0.80499173
From 161 observations 2016 Mar. 3-2019 Apr. 25, mean residual 0".4.

* Magnitudes Graph

        m1 = 5.7 + 5 log d + 10.0 log r

---------------------------------------------------------------------

The orbital elements are published on M.P.E.C. 2019-J142.
The magnitudes graphs are made with Comet for Windows.

---------------------------------------------------------------------

Copyright(C) Seiichi Yoshida (comet@aerith.net). All rights reserved.